Hill City, KS

9:16 PM CDT on April 22, 2018 (GMT -0500)
Hill City Municipal

Weather History for KHLC - December, 2014

Change the Weather History Date:

Tuesday, December 23, 2014

  Actual Average Record
Temperature  
Mean Temperature 34 °F 29 °F  
Max Temperature 37 °F 42 °F 83 °F (1964)
Min Temperature 30 °F 17 °F -25 °F (1989)
Degree Days  
Heating Degree Days 32    
Moisture  
Dew Point 26 °F    
Average Humidity 76    
Maximum Humidity 82    
Minimum Humidity 69    
Precipitation  
Precipitation T in 0.02 in 0.03 in (1997)
Month to date precipitation 0.27 0.56  
Year to date precipitation 21.72 22.79  
Sea Level Pressure  
Sea Level Pressure 29.90 in    
Wind  
Wind Speed 22 mph (NNW)    
Max Wind Speed 34 mph    
Max Gust Speed 44 mph    
Visibility 8 miles    
Events Rain , Snow    
T = Trace of Precipitation, MM = Missing Value Source: NWS Daily Summary

Daily Weather History Graph

Daily Weather History Graph

Search for Another Location

Airport or City:

Astronomy

Dec. 23, 2014 Rise Set
Actual Time 7:56 AM CST 5:20 PM CST
Civil Twilight 7:26 AM CST 5:50 PM CST
Nautical Twilight 6:52 AM CST 6:24 PM CST
Astronomical Twilight 6:20 AM CST 6:57 PM CST
Moon 9:03 AM CST 7:36 PM CST
Length of Visible Light 10h 24m
Length of Day
9h 23m
Waxing Crescent, 4% of the Moon is Illuminated
Dec 23
Waxing Crescent
Dec 28
First Quarter
Jan 4
Full
Jan 13
Last Quarter
Jan 20
New

Hourly Weather History & Observations

Time (CST) Temp. Windchill Dew Point Humidity Pressure Visibility Wind Dir Wind Speed Gust Speed Precip Events Conditions
12:53 AM 36.0 °F 25.3 °F 27.0 °F 70% 29.69 in 10.0 mi NW 19.6 mph 26.5 mph N/A   Overcast
1:53 AM 34.0 °F 24.6 °F 27.0 °F 75% 29.69 in 10.0 mi WNW 13.8 mph 20.7 mph N/A   Partly Cloudy
2:34 AM 35.1 °F 23.8 °F 27.0 °F 72% 29.68 in 10.0 mi NW 20.7 mph 28.8 mph N/A   Mostly Cloudy
2:53 AM 34.0 °F 23.0 °F 26.1 °F 73% 29.72 in 10.0 mi NW 18.4 mph 28.8 mph N/A   Mostly Cloudy
3:19 AM 33.1 °F 23.0 °F 27.0 °F 78% 29.70 in 8.0 mi NNW 15.0 mph - 0.00 in Snow Light Snow
3:26 AM 33.1 °F 22.2 °F 27.0 °F 78% 29.70 in 7.0 mi NNW 17.3 mph - 0.00 in Snow Light Snow
3:53 AM 32.0 °F 19.2 °F 26.1 °F 79% 29.72 in 10.0 mi NW 23.0 mph 32.2 mph 0.00 in   Overcast
4:04 AM 30.9 °F 17.8 °F 26.1 °F 82% 29.71 in 10.0 mi NW 23.0 mph 31.1 mph 0.00 in Snow Light Snow
4:53 AM 30.0 °F 18.3 °F 25.0 °F 82% 29.74 in 10.0 mi NW 17.3 mph 24.2 mph 0.00 in   Mostly Cloudy
5:53 AM 30.0 °F 18.7 °F 24.1 °F 79% 29.78 in 10.0 mi NW 16.1 mph 25.3 mph N/A   Partly Cloudy
6:53 AM 30.9 °F 18.4 °F 24.1 °F 76% 29.83 in 10.0 mi NNW 20.7 mph 27.6 mph N/A   Overcast
7:53 AM 30.9 °F 18.4 °F 23.0 °F 72% 29.85 in 9.0 mi NNW 20.7 mph 31.1 mph 0.00 in   Overcast
8:53 AM 30.9 °F 18.1 °F 23.0 °F 72% 29.88 in 6.0 mi NNW 21.9 mph 33.4 mph 0.00 in Snow Light Snow
9:53 AM 30.9 °F 17.5 °F 25.0 °F 79% 29.91 in 4.0 mi NNW 24.2 mph 31.1 mph 0.00 in Snow Light Snow
10:31 AM 32.0 °F 18.1 °F 26.1 °F 79% 29.88 in 2.0 mi NNW 27.6 mph 36.8 mph 0.00 in Snow Light Snow
10:39 AM 32.0 °F 17.9 °F 26.1 °F 79% 29.88 in 1.5 mi NNW 28.8 mph 38.0 mph 0.00 in Snow Light Snow
10:51 AM 32.0 °F 17.4 °F 26.6 °F 80% 29.88 in 3.0 mi NNW 31.1 mph 38.0 mph 0.00 in Snow Light Snow
10:53 AM 32.0 °F 17.6 °F 26.1 °F 79% 29.93 in 3.0 mi NNW 29.9 mph 38.0 mph 0.00 in Snow Light Snow
11:00 AM 32.0 °F 18.4 °F 26.1 °F 79% 29.88 in 3.0 mi NNW 26.5 mph 36.8 mph 0.00 in Snow Light Snow
11:24 AM 32.0 °F 17.0 °F 27.0 °F 82% 29.89 in 2.5 mi NNW 33.4 mph 41.4 mph 0.00 in Snow Light Snow
11:41 AM 33.1 °F 18.2 °F 27.0 °F 78% 29.89 in 4.0 mi NNW 34.5 mph 40.3 mph 0.00 in Snow Light Snow
11:53 AM 33.1 °F 20.1 °F 27.0 °F 78% 29.94 in 7.0 mi NNW 25.3 mph 35.7 mph 0.00 in Snow Light Snow
12:53 PM 34.0 °F 20.5 °F 27.0 °F 75% 29.95 in 5.0 mi NNW 28.8 mph 38.0 mph 0.00 in Snow Light Snow
1:53 PM 33.1 °F 19.6 °F 26.1 °F 75% 29.96 in 7.0 mi NNW 27.6 mph 39.1 mph 0.00 in Rain Light Rain
2:53 PM 34.0 °F 20.1 °F 28.0 °F 79% 29.98 in 6.0 mi NNW 31.1 mph 39.1 mph 0.00 in Snow Light Snow
3:36 PM 34.0 °F 20.5 °F 27.0 °F 75% 29.95 in 5.0 mi NNW 28.8 mph 43.7 mph 0.00 in Snow Light Snow
3:53 PM 34.0 °F 20.8 °F 26.1 °F 73% 30.01 in 10.0 mi NNW 27.6 mph 40.3 mph 0.00 in Rain Light Rain
4:53 PM 33.1 °F 19.1 °F 26.1 °F 75% 30.04 in 10.0 mi NNW 29.9 mph 35.7 mph 0.00 in   Overcast
5:53 PM 32.0 °F 18.4 °F 26.1 °F 79% 30.06 in 9.0 mi NNW 26.5 mph 36.8 mph 0.00 in   Overcast
6:53 PM 32.0 °F 19.2 °F 26.1 °F 79% 30.08 in 10.0 mi North 23.0 mph 33.4 mph 0.00 in   Overcast
7:53 PM 33.1 °F 20.3 °F 25.0 °F 72% 30.10 in 10.0 mi NNW 24.2 mph 36.8 mph 0.00 in   Overcast
8:53 PM 32.0 °F 18.1 °F 23.0 °F 69% 30.12 in 10.0 mi NNW 27.6 mph 34.5 mph N/A   Overcast
9:53 PM 30.9 °F 17.8 °F 21.9 °F 69% 30.13 in 10.0 mi North 23.0 mph 32.2 mph N/A   Overcast
10:53 PM 30.9 °F 18.4 °F 21.9 °F 69% 30.12 in 10.0 mi NNW 20.7 mph 29.9 mph N/A   Overcast
11:53 PM 30.0 °F 20.5 °F 21.9 °F 72% 30.11 in 10.0 mi NW 11.5 mph - N/A   Mostly Cloudy